Coolangatta, Australia

7:58 AM AEST on July 25, 2017 (GMT +1000)
Coolangatta

Weather History for YBCG - June, 2014

Change the Weather History Date:

Thursday, June 5, 2014

  Actual Average Record
Temperature  
Mean Temperature 62 °F -  
Max Temperature 71 °F - - ()
Min Temperature 52 °F - - ()
Degree Days  
Heating Degree Days 4    
Growing Degree Days 12 (Base 50)    
Moisture  
Dew Point 57 °F    
Average Humidity 79    
Maximum Humidity 94    
Minimum Humidity 58    
Precipitation  
Precipitation 0.00 in - - ()
Sea Level Pressure  
Sea Level Pressure 30.17 in    
Wind  
Wind Speed 6 mph ()    
Max Wind Speed 14 mph    
Max Gust Speed -    
Visibility 6.2 miles    
Events      
T = Trace of Precipitation, MM = Missing Value Source: Averaged Metar Reports

Daily Weather History Graph

Daily Weather History Graph

Search for Another Location

Airport or City:

Trip Planner

Search our weather history database for the weather conditions in past years. The results will help you decide how hot, cold, wet, or windy it might be!

Date:

Astronomy

Jun. 05, 2014 Rise Set
Actual Time 6:31 AM AEST 4:57 PM AEST
Civil Twilight 6:05 AM AEST 5:22 PM AEST
Nautical Twilight 5:36 AM AEST 5:52 PM AEST
Astronomical Twilight 5:08 AM AEST 6:20 PM AEST
Moon 11:28 AM AEST (6/5) 11:27 PM AEST (6/5)
Length of Visible Light 11h 17m
Length of Day
10h 25m
Waxing Crescent, 43% of the Moon is Illuminated
Jun 5
Waxing Crescent
Jun 6
First Quarter
Jun 13
Full
Jun 20
Last Quarter
Jun 27
New

Hourly Weather History & Observations

Time (AEST) Temp. Dew Point Humidity Pressure Visibility Wind Dir Wind Speed Gust Speed Precip Events Conditions
12:00 AM 59 °F 54 °F 78% 30.21 in - WSW 5.8 mph - -  
12:00 AM 59.0 °F 53.6 °F 82% 30.18 in 6.2 mi WSW 5.8 mph - N/A   Unknown
12:30 AM 59.0 °F 53.6 °F 82% 30.18 in 6.2 mi SW 4.6 mph - N/A   Unknown
1:00 AM 57.2 °F 51.8 °F 82% 30.18 in 6.2 mi WSW 3.5 mph - N/A   Unknown
1:30 AM 57.2 °F 53.6 °F 88% 30.18 in 6.2 mi WSW 4.6 mph - N/A   Unknown
2:00 AM 57.2 °F 53.6 °F 88% 30.18 in 6.2 mi WSW 4.6 mph - N/A   Unknown
2:30 AM 55.4 °F 53.6 °F 94% 30.18 in 6.2 mi SW 4.6 mph - N/A   Unknown
3:00 AM 55 °F 53 °F 92% 30.18 in - SW 5.8 mph - -  
3:00 AM 55.4 °F 53.6 °F 94% 30.15 in 6.2 mi SW 5.8 mph - N/A   Unknown
3:30 AM 55.4 °F 53.6 °F 94% 30.15 in 6.2 mi South 4.6 mph - N/A   Unknown
4:00 AM 53.6 °F 51.8 °F 94% 30.15 in 6.2 mi SSE 2.3 mph - N/A   Unknown
4:30 AM 57.2 °F 53.6 °F 88% 30.18 in 6.2 mi WSW 5.8 mph - N/A   Unknown
5:00 AM 57.2 °F 53.6 °F 88% 30.18 in 6.2 mi WSW 6.9 mph - N/A   Unknown
5:30 AM 57.2 °F 55.4 °F 94% 30.18 in 6.2 mi WSW 6.9 mph - N/A   Scattered Clouds
6:00 AM 57 °F 54 °F 88% 30.19 in - SW 6.9 mph - -  
6:00 AM 57.2 °F 53.6 °F 88% 30.18 in 6.2 mi SW 6.9 mph - N/A   Unknown
6:30 AM 57.2 °F 55.4 °F 94% 30.18 in 6.2 mi South 5.8 mph - N/A   Unknown
7:00 AM 57.2 °F 55.4 °F 94% 30.18 in 6.2 mi SW 3.5 mph - N/A   Unknown
7:30 AM 62.6 °F 57.2 °F 82% 30.18 in 6.2 mi SW 8.1 mph - N/A   Scattered Clouds
8:00 AM 64.4 °F 55.4 °F 73% 30.21 in 6.2 mi SW 8.1 mph - N/A   Mostly Cloudy
8:30 AM 64.4 °F 57.2 °F 77% 30.21 in 6.2 mi West 3.5 mph - N/A   Overcast
9:00 AM 67 °F 58 °F 64% 30.22 in - SSW 4.6 mph - -   Overcast
9:00 AM 66.2 °F 57.2 °F 73% 30.21 in 6.2 mi SSW 4.6 mph - N/A   Overcast
9:30 AM 68.0 °F 59.0 °F 73% 30.21 in 6.2 mi SSW 5.8 mph - N/A   Overcast
10:00 AM 69.8 °F 60.8 °F 73% 30.21 in 6.2 mi SSW 9.2 mph - N/A   Mostly Cloudy
10:30 AM 69.8 °F 57.2 °F 64% 30.18 in 6.2 mi SW 10.4 mph - N/A   Overcast
11:00 AM 69.8 °F 59.0 °F 68% 30.18 in 6.2 mi SSW 8.1 mph - N/A   Overcast
11:30 AM 71.6 °F 60.8 °F 69% 30.18 in 6.2 mi SSW 9.2 mph - N/A   Mostly Cloudy
12:00 PM 71 °F 59 °F 58% 30.18 in - SSW 9.2 mph - -   Overcast
12:00 PM 71.6 °F 59.0 °F 64% 30.15 in 6.2 mi SSW 9.2 mph - N/A   Overcast
12:30 PM 71.6 °F 59.0 °F 64% 30.15 in 6.2 mi SW 9.2 mph - N/A   Mostly Cloudy
1:00 PM 71.6 °F 60.8 °F 69% 30.15 in 6.2 mi SW 9.2 mph - N/A   Overcast
1:30 PM 69.8 °F 59.0 °F 68% 30.15 in 6.2 mi SW 9.2 mph - N/A   Overcast
2:00 PM 69.8 °F 59.0 °F 68% 30.12 in 6.2 mi SSW 11.5 mph - N/A   Overcast
2:30 PM 69.8 °F 59.0 °F 68% 30.12 in 6.2 mi SSW 10.4 mph - N/A   Overcast
3:00 PM 69 °F 59 °F 64% 30.14 in - SSW 8.1 mph - -   Overcast
3:00 PM 69.8 °F 59.0 °F 68% 30.12 in 6.2 mi SSW 8.1 mph - N/A   Overcast
3:30 PM 69.8 °F 59.0 °F 68% 30.12 in 6.2 mi SSW 6.9 mph - N/A   Overcast
4:00 PM 69.8 °F 59.0 °F 68% 30.12 in 6.2 mi SSW 8.1 mph - N/A   Mostly Cloudy
4:30 PM 68.0 °F 59.0 °F 73% 30.12 in 6.2 mi SSW 8.1 mph - N/A   Mostly Cloudy
5:00 PM 68.0 °F 59.0 °F 73% 30.15 in 6.2 mi SSW 8.1 mph - N/A   Mostly Cloudy
5:30 PM 66.2 °F 59.0 °F 78% 30.15 in 6.2 mi SSW 6.9 mph - N/A   Mostly Cloudy
6:00 PM 66 °F 59 °F 70% 30.19 in - South 6.9 mph - -   Overcast
6:00 PM 66.2 °F 59.0 °F 78% 30.18 in 6.2 mi South 6.9 mph - N/A   Overcast
6:30 PM 66.2 °F 60.8 °F 83% 30.18 in 6.2 mi SE 13.8 mph - N/A   Mostly Cloudy
7:00 PM 64.4 °F 60.8 °F 88% 30.21 in 6.2 mi SSE 9.2 mph - N/A   Overcast
7:30 PM 64.4 °F 59.0 °F 83% 30.21 in 6.2 mi SSE 9.2 mph - N/A   Overcast
8:00 PM 64.4 °F 59.0 °F 83% 30.18 in 6.2 mi SSW 5.8 mph - N/A   Overcast
8:30 PM 64.4 °F 60.8 °F 88% 30.21 in 6.2 mi WSW 6.9 mph - N/A   Overcast
9:00 PM 65 °F 60 °F 81% 30.21 in - SW 8.1 mph - -   Overcast
9:00 PM 64.4 °F 60.8 °F 88% 30.18 in 6.2 mi SW 8.1 mph - N/A   Overcast
9:30 PM 64.4 °F 60.8 °F 88% 30.18 in 6.2 mi SSW 3.5 mph - N/A   Overcast
10:00 PM 66.2 °F 59.0 °F 78% 30.18 in 6.2 mi SSW 8.1 mph - N/A   Overcast
10:30 PM 64.4 °F 57.2 °F 77% 30.18 in 6.2 mi SSW 6.9 mph - N/A   Scattered Clouds
11:00 PM 64.4 °F 57.2 °F 77% 30.18 in 6.2 mi SSW 8.1 mph - N/A   Unknown
11:30 PM 64.4 °F 57.2 °F 77% 30.18 in 6.2 mi SSW 8.1 mph - N/A   Scattered Clouds